Regional Weather Roundup
Issued by NWS Sioux Falls, SD

Home | Current Version | Previous Version | Text Only | Print | Product List | Glossary Off
Versions: 1 2 3 4 5 6 7 8 9 10 11 12 13 14 15 16 17 18 19 20 21 22 23 24 25 26 27 28 29 30 31 32 33 34 35 36 37 38 39 40 41 42 43 44 45 46 47 48 49 50

000
ASUS43 KFSD 280702
RWRFSD

WEATHER ROUNDUP FOR SE SOUTH DAKOTA/SW MINNESOTA/NW IOWA
NATIONAL WEATHER SERVICE SIOUX FALLS SD
200 AM CDT MON JUL 28 2014

NOTE: "FAIR" INDICATES FEW OR NO CLOUDS BELOW 12,000 FEET WITH NO
SIGNIFICANT WEATHER AND OR OBSTRUCTIONS TO VISIBILITY.


SDZ038>040-050-052>070-280800-
SOUTHEAST SOUTH DAKOTA

CITY           SKY/WX    TMP DP  RH WIND       PRES   REMARKS
CHAMBERLAIN    CLEAR     52  49  91 W3        30.30R
HURON          CLEAR     52  50  93 NW6       30.26R
MADISON        FAIR      55  55 100 NW8       30.24F
MITCHELL       CLEAR     56  54  93 W7        30.26S
SIOUX FALLS    CLEAR     58  54  86 NW6       30.23S
WINNER         FAIR      58  53  84 SE3       30.31R
YANKTON        CLOUDY    61  55  82 NW5       30.25S
$$

MNZ071-072-080-081-089-090-097-098-280800-
SOUTHWEST MINNESOTA

CITY           SKY/WX    TMP DP  RH WIND       PRES   REMARKS
FAIRMONT       CLOUDY    61  55  82 N7        30.16S
JACKSON        PTCLDY    59  55  88 NW8       30.18S
LUVERNE        CLEAR     57  54  88 NW7       30.22S
MARSHALL       PTCLDY    59  55  88 NW8       30.18S
MONTEVIDEO     CLOUDY    63  57  82 N7        30.20S
PIPESTONE      CLEAR     55  54  94 NW6       30.22S
REDWOOD FALLS  LGT RAIN  62  59  90 N6        30.18R
TRACY          MOCLDY    61  57  88 CALM      30.20S
WINDOM         CLOUDY    61  57  88 NW10      30.18S
WORTHINGTON    PTCLDY    55  54  94 NW7       30.21R
$$

IAZ001>003-012>014-020>022-031-032-NEZ013-014-SDZ071-280800-
NORTHWEST IOWA

CITY           SKY/WX    TMP DP  RH WIND       PRES   REMARKS
CHEROKEE       CLEAR     58  57  96 CALM      30.20S
DENISON        CLEAR     57  57 100 NW6       30.18S
ESTHERVILLE    CLEAR     58  56  93 NW7       30.17R
LE MARS        CLEAR     59  57  94 NW5       30.22S
ORANGE CITY    CLEAR     57  54  88 NW6       30.22R
SHELDON        CLEAR     55  54  94 NW5       30.20S
SIOUX CITY     PTCLDY    61  56  83 N7        30.22S
SPENCER        PTCLDY    57  55  93 W7        30.19R
STORM LAKE     CLEAR     57  57 100 NW9       30.19F
$$

ABBREVIATIONS USED IN REMARKS
   TC - TEMPERATURE IN CELSIUS
  WCI - WIND CHILL INDEX
   HX - HEAT INDEX
  VSB - VISIBILITY




USA.gov is the U.S. government's official web portal to all federal, state and local government web resources and services.